FW5940 Weather Reports


time (UTC)temp
F
wind
direction
speed
knots
gust
knots
rain 1hr
in
rain 24hr
in
rain mn
in
humidity
%
barometer
mb
20260506102516 63 37 2.6 6.1 0.00 0.31 0.01 66 1006.0
20260506101517 63 23 2.6 7.0 0.00 0.31 0.01 65 1006.2
20260506100537 63 30 1.7 4.3 0.00 0.31 0.01 67 1006.2
20260506095515 62 7 1.7 5.2 0.00 0.31 0.01 67 1006.2
20260506094516 62 350 3.5 7.0 0.00 0.31 0.01 68 1006.2
20260506093517 62 354 1.7 6.1 0.00 0.31 0.01 68 1006.2
20260506092517 62 9 1.7 4.3 0.00 0.31 0.01 67 1006.2
20260506091515 61 319 1.7 5.2 0.00 0.31 0.01 69 1006.2
20260506090518 62 330 2.6 7.0 0.00 0.31 0.01 67 1006.2
20260506085516 61 9 2.6 7.0 0.00 0.31 0.01 69 1006.3
20260506084535 61 8 3.5 7.0 0.00 0.31 0.01 70 1006.3
20260506083517 60 360 1.7 6.1 0.00 0.31 0.01 69 1006.4
20260506082515 60 352 1.7 4.3 0.00 0.31 0.01 68 1006.5
20260506081515 60 332 2.6 6.1 0.00 0.31 0.01 69 1006.6
20260506080536 60 343 2.6 4.3 0.00 0.31 0.01 69 1006.6
20260506073517 59 316 1.7 3.5 0.00 0.31 0.01 70 1006.7
20260506072517 59 22 2.6 4.3 0.00 0.31 0.01 74 1006.9
20260506071515 58 97 0.9 2.6 0.00 0.31 0.01 76 1007.0
20260506070516 57 0.0 0.0 0.00 0.31 0.01 77 1007.0
20260506061517 54 0.0 0.0 0.00 0.31 0.01 89 1007.2
20260506060516 54 0.0 0.0 0.00 0.31 0.01 90 1007.3
20260506050517 49 147 0.9 2.6 0.00 0.31 0.01 92 1007.6
20260506044517 49 146 0.9 1.7 0.00 0.31 0.01 92 1007.3
20260506043517 49 146 0.9 1.7 0.00 0.31 0.01 92 1007.4
20260506042537 49 0.0 0.0 0.00 0.31 0.01 92 1007.6
20260506041517 49 146 0.0 0.9 0.00 0.31 0.01 92 1007.7
20260506040515 49 146 0.9 0.9 0.00 0.31 0.01 91 1007.7
20260506035517 49 0.0 0.0 0.00 0.31 0.01 91 1007.6
20260506034515 49 146 0.0 0.9 0.00 0.31 0.01 91 1007.7
20260506033517 49 0.0 0.0 0.00 0.31 0.01 91 1007.8
20260506032516 49 146 0.0 1.7 0.00 0.31 0.01 91 1007.8
20260506031517 49 146 0.0 0.9 0.00 0.31 0.01 91 1008.0
20260506030516 49 147 0.9 1.7 0.00 0.31 0.01 91 1008.2
20260506025515 49 147 0.9 1.7 0.00 0.31 0.01 91 1008.3
20260506024518 49 147 0.9 2.6 0.00 0.31 0.01 91 1008.3
20260506023515 49 139 1.7 2.6 0.00 0.31 0.01 91 1008.4
20260506022516 49 127 0.9 1.7 0.00 0.31 0.01 91 1008.3
20260506021515 49 128 1.7 3.5 0.00 0.31 0.01 91 1008.2
20260506020518 49 131 0.9 2.6 0.00 0.31 0.01 91 1008.3
20260506015516 49 131 0.9 1.7 0.00 0.31 0.01 91 1008.4
20260506014517 49 130 0.9 1.7 0.00 0.31 0.01 91 1008.3
20260506013517 50 130 1.7 2.6 0.00 0.31 0.01 91 1008.4
20260506012520 50 156 1.7 3.5 0.00 0.31 0.01 91 1008.5
20260506011537 50 170 0.0 0.9 0.01 0.31 0.01 91 1008.6
20260506010516 50 170 0.9 1.7 0.01 0.31 0.01 91 1008.5
20260506005530 51 179 0.9 1.7 0.01 0.31 0.01 91 1008.5
20260506004517 51 179 0.0 1.7 0.01 0.31 0.01 90 1008.5
20260506003518 51 179 0.9 2.6 0.01 0.31 0.01 90 1008.7
20260506002516 51 181 1.7 2.6 0.01 0.31 0.01 90 1008.7
20260506001515 52 181 1.7 4.3 0.00 0.30 0.00 90 1008.8
20260506000517 52 197 2.6 4.3 0.00 0.30 0.00 90 1008.9
20260505235559 52 170 2.6 5.2 0.00 0.30 0.00 90 1008.9
20260505234519 52 176 1.7 5.2 0.00 0.30 0.00 90 1008.9
20260505233517 52 200 2.6 5.2 0.00 0.30 0.00 90 1009.1
20260505232519 53 204 3.5 6.1 0.00 0.30 0.00 90 1009.1
20260505231516 53 200 3.5 6.1 0.00 0.30 0.00 90 1009.2
20260505230515 53 200 4.3 8.7 0.00 0.30 0.00 90 1009.2
20260505225557 53 204 3.5 7.0 0.00 0.30 0.00 90 1009.2
20260505224517 53 206 3.5 6.1 0.00 0.30 0.00 90 1009.0
20260505223518 54 197 3.5 7.8 0.02 0.30 0.00 90 1009.1
20260505222516 54 200 5.2 9.6 0.05 0.30 0.00 90 1009.3
20260505221517 54 203 6.1 13.9 0.06 0.30 0.00 90 1009.5
20260505220516 54 197 5.2 8.7 0.07 0.30 0.00 90 1009.5
20260505215515 54 210 6.1 11.3 0.12 0.30 0.30 89 1009.5
20260505214516 54 219 7.0 11.3 0.15 0.30 0.30 89 1009.6
20260505213515 54 210 6.1 12.2 0.13 0.28 0.28 89 1009.6
20260505212517 54 214 5.2 10.4 0.10 0.25 0.25 88 1009.6
20260505211516 54 229 3.5 8.7 0.09 0.24 0.24 88 1009.3
20260505210517 55 242 5.2 9.6 0.08 0.23 0.23 87 1009.2
20260505205516 55 230 6.1 13.0 0.03 0.18 0.18 85 1009.2
20260505204515 56 229 7.0 12.2 0.00 0.15 0.15 84 1009.0
20260505203516 56 233 4.3 9.6 0.00 0.15 0.15 84 1008.9
20260505202516 56 224 4.3 11.3 0.00 0.15 0.15 84 1008.8
20260505201516 56 232 4.3 9.6 0.00 0.15 0.15 85 1008.6
20260505200516 56 245 3.5 11.3 0.00 0.15 0.15 87 1008.2
20260505195517 57 223 0.9 2.6 0.00 0.15 0.15 86 1007.8
20260505194517 57 209 0.9 2.6 0.00 0.15 0.15 85 1007.6
20260505193535 57 209 0.9 1.7 0.00 0.15 0.15 84 1007.4
20260505192516 57 210 0.9 2.6 0.00 0.15 0.15 83 1007.3
20260505191516 57 229 0.9 1.7 0.00 0.15 0.15 82 1007.1
20260505190517 58 229 0.0 1.7 0.00 0.15 0.15 81 1007.0
20260505185536 58 256 1.7 2.6 0.00 0.15 0.15 80 1007.1
20260505184559 58 267 2.6 6.1 0.00 0.15 0.15 78 1007.0
20260505183515 58 274 4.3 8.7 0.00 0.15 0.15 78 1006.8
20260505182515 58 279 3.5 7.0 0.00 0.15 0.15 80 1006.6
20260505181520 59 272 4.3 8.7 0.00 0.15 0.15 81 1006.7
20260505180516 59 283 3.5 6.1 0.00 0.15 0.15 81 1006.4
20260505175517 60 285 2.6 5.2 0.00 0.15 0.15 79 1006.3
20260505174538 61 299 2.6 7.0 0.00 0.15 0.15 77 1006.2
20260505173603 62 285 3.5 7.0 0.00 0.15 0.15 77 1006.1
20260505172515 62 291 2.6 7.8 0.00 0.15 0.15 76 1006.1
20260505171517 62 296 1.7 6.1 0.00 0.15 0.15 77 1006.1
20260505170516 62 284 2.6 6.1 0.00 0.15 0.15 78 1006.0
20260505165515 61 338 3.5 6.1 0.00 0.15 0.15 78 1006.0
20260505164540 61 333 2.6 6.1 0.00 0.15 0.15 78 1006.0
20260505163516 60 327 3.5 7.0 0.00 0.15 0.15 79 1006.1
20260505162517 60 344 2.6 4.3 0.00 0.15 0.15 81 1006.0
20260505161515 59 25 1.7 3.5 0.01 0.15 0.15 82 1006.0
20260505160538 59 7 1.7 4.3 0.02 0.15 0.15 83 1006.1
20260505152536 58 205 1.7 4.3 0.11 0.15 0.15 84 1006.7
20260505151517 58 268 1.7 3.5 0.14 0.14 0.14 85 1006.8
20260505150516 58 230 2.6 6.1 0.13 0.13 0.13 84 1006.9
20260505140517 72 267 2.6 7.0 0.00 0.00 0.00 48 1005.6
20260505124519 73 304 4.3 7.8 0.00 0.00 0.00 42 1005.7
20260505123517 73 258 3.5 7.8 0.00 0.00 0.00 41 1005.7
20260505122537 74 342 2.6 4.3 0.00 0.00 0.00 42 1005.8
20260505121515 74 352 2.6 5.2 0.00 0.00 0.00 41 1005.9
20260505120517 75 85 3.5 7.8 0.00 0.00 0.00 40 1005.9
20260505115515 75 31 2.6 8.7 0.00 0.00 0.00 40 1005.9
20260505114519 74 314 2.6 5.2 0.00 0.00 0.00 41 1005.9
20260505113515 74 239 2.6 6.1 0.00 0.00 0.00 41 1006.0
20260505112518 74 79 1.7 3.5 0.00 0.00 0.00 41 1006.1
20260505111516 74 69 2.6 7.8 0.00 0.00 0.00 41 1006.3
20260505110515 72 47 1.7 3.5 0.00 0.00 0.00 43 1006.4